Theta_e
294 294 294 294 295 295 294 294 294 294 294 294 294 293 293 293 294 294 295 296 297 298 298 299 300 301 301 302 302 303 304 304 305 305 306 306 307 307 310 312 312 313 316 320 323 325 329 336 339 341 342 342 342 342 342 342 344 344 344 345 345 345 346 345 344 344 343 342 343 344 344 344 343 343 343 343 343 343 343 342 341 340 339 338 337
293 293 293 293 294 294 294 293 293 293 293 293 292 292 292 292 293 294 294 294 295 296 297 298 299 300 300 301 301 302 302 302 303 304 304 305 306 306 307 310 312 313 315 316 319 321 324 327 335 338 339 340 341 342 342 342 343 344 344 345 345 344 344 343 344 343 340 342 342 342 343 343 343 343 343 342 342 342 342 341 340 339 338 338 337
292 292 292 292 293 293 293 293 293 293 293 292 293 292 292 292 292 292 293 293 294 295 296 296 297 298 300 300 300 301 302 302 302 303 303 304 304 306 306 307 309 309 310 313 315 318 321 324 327 334 337 340 341 341 341 341 342 343 344 344 345 344 344 343 342 344 341 340 342 342 342 343 342 342 342 341 342 342 341 340 339 339 338 338 337
292 292 292 292 292 292 292 292 292 292 292 292 291 292 292 292 293 293 293 293 293 294 296 295 296 297 298 299 300 300 300 301 302 302 303 303 304 304 304 305 306 308 308 310 313 315 316 318 320 324 331 335 337 340 340 340 341 342 343 344 344 344 343 341 343 343 343 341 341 341 341 342 342 342 341 341 341 340 340 340 339 339 338 337 337
291 291 291 291 291 291 291 292 292 291 291 291 291 292 292 292 292 292 292 293 293 294 295 294 294 295 296 297 297 298 299 300 301 301 302 302 303 304 304 304 304 305 307 309 309 311 314 316 317 319 321 326 333 338 340 340 340 341 342 343 343 345 346 344 342 342 341 341 341 341 341 342 342 342 342 341 341 340 339 339 338 338 337 338 337
291 290 290 290 290 290 290 290 291 291 291 291 290 290 290 291 291 291 291 291 292 292 292 292 293 293 294 295 295 296 297 298 299 300 301 301 302 303 303 303 303 303 304 306 308 309 310 312 315 317 318 322 330 332 335 337 339 340 341 342 343 343 343 344 342 343 341 340 340 341 341 341 342 341 341 341 340 339 339 338 338 338 338 337 337
290 289 289 289 289 289 290 290 290 290 289 290 289 290 290 290 290 289 290 291 291 291 291 291 291 291 293 293 294 294 295 296 297 297 299 301 301 302 302 302 302 303 303 303 303 306 310 310 312 315 318 319 320 322 331 337 338 339 340 341 342 343 342 343 340 341 342 340 340 341 341 341 341 342 340 340 340 339 339 338 338 338 338 337 337
289 289 288 289 288 288 289 289 289 289 289 289 289 289 289 289 290 290 289 289 289 289 290 290 290 290 291 292 292 293 293 294 295 296 298 299 300 301 301 301 302 302 302 302 302 303 306 308 309 311 314 316 321 325 327 333 336 338 339 340 341 342 342 341 343 343 342 338 340 338 341 341 341 341 341 340 339 339 338 338 338 337 337 337 336
289 289 288 288 288 288 288 289 289 288 288 288 288 289 288 288 289 289 289 288 288 288 289 289 289 289 290 291 291 292 292 293 294 295 297 297 298 300 301 301 301 301 301 301 302 302 303 306 308 308 309 310 312 316 321 327 332 337 337 339 340 340 340 341 340 342 337 337 339 338 339 340 340 341 340 339 339 338 338 338 337 337 337 336 336
288 288 288 288 288 288 288 288 288 288 288 288 288 288 288 288 287 288 288 287 287 287 287 288 288 288 288 289 290 290 291 292 294 295 295 295 297 298 299 301 301 301 302 302 303 303 303 304 306 308 308 309 311 313 315 320 325 330 336 337 339 340 339 340 340 339 340 339 338 339 339 339 340 340 340 340 339 338 338 338 337 337 337 336 336
288 288 287 287 287 287 287 288 287 287 287 287 287 288 288 288 287 287 288 288 287 287 286 287 287 287 287 288 289 290 291 292 293 293 294 296 296 297 300 299 300 301 302 302 302 303 302 303 303 304 304 306 311 312 314 317 320 323 331 334 337 339 339 339 341 340 340 339 340 340 339 339 340 340 340 339 339 338 338 337 337 338 337 336 335
287 287 287 286 286 286 287 287 287 287 286 286 286 286 286 286 286 286 286 286 287 287 287 286 286 286 286 288 290 291 292 292 293 294 295 296 296 297 297 299 300 300 301 302 302 302 302 302 302 302 303 304 307 311 312 313 317 321 325 332 336 336 338 337 338 339 338 339 340 340 338 339 339 339 339 338 338 338 338 338 338 337 336 336 335
287 287 286 286 285 286 286 286 287 286 285 285 286 286 286 286 285 285 285 284 285 287 287 287 284 284 288 289 289 290 291 291 292 293 294 295 296 296 297 298 299 299 300 301 301 301 301 302 302 303 303 304 305 305 309 312 313 321 326 329 334 337 338 338 337 337 336 337 340 340 340 340 339 339 339 339 339 338 338 337 337 337 337 336 334
286 287 286 286 285 285 285 285 286 285 285 285 285 285 285 285 285 284 286 284 284 286 286 285 284 284 283 283 285 289 291 291 291 292 294 295 296 296 297 297 297 298 299 299 300 300 301 301 302 302 303 302 304 304 305 305 312 318 322 329 333 338 337 338 338 338 338 337 338 340 340 340 340 341 340 339 339 338 338 337 337 337 336 335 335
287 286 285 285 285 284 285 285 285 285 284 284 285 284 285 285 284 283 283 285 284 286 285 286 282 284 284 282 283 284 287 289 292 293 294 295 296 297 297 297 298 299 299 299 299 300 300 301 301 301 302 302 303 304 304 302 304 311 321 323 328 335 335 336 336 338 337 338 338 339 340 340 340 339 340 340 339 338 338 337 337 337 336 334 335
286 286 285 285 285 284 284 284 284 285 284 283 284 284 284 284 284 284 283 281 283 284 286 285 284 283 280 283 282 282 280 285 288 291 293 293 292 293 294 294 296 298 298 298 299 300 301 301 302 303 304 304 305 306 307 306 305 306 311 316 319 327 334 335 336 335 338 339 338 338 339 338 340 339 340 339 338 338 337 337 336 336 336 335 334
285 285 285 284 284 284 284 284 284 284 284 283 283 283 284 284 284 283 283 282 281 283 284 285 284 285 282 280 281 281 283 285 285 284 288 288 290 292 292 293 294 295 296 297 298 299 299 301 302 301 301 305 304 304 306 309 309 309 312 311 315 321 325 334 335 334 336 339 340 338 339 338 337 341 341 340 340 339 339 337 336 335 333 334 334
285 285 284 284 284 284 284 283 283 283 283 283 283 283 283 283 284 283 282 283 282 281 281 284 284 284 284 283 283 280 280 282 281 278 287 288 288 289 290 291 291 291 292 293 293 296 299 299 300 300 301 301 300 302 302 301 310 312 313 318 320 323 323 326 333 335 336 337 339 339 340 338 339 340 341 339 339 338 337 337 336 335 334 333 334
285 284 284 284 283 283 283 283 283 283 283 282 282 282 283 283 283 283 282 283 282 280 280 281 283 283 283 283 283 283 283 280 278 280 278 283 287 287 288 290 291 292 293 294 294 294 296 297 298 299 299 299 298 301 304 305 303 305 309 311 319 324 324 323 325 330 333 334 339 338 337 341 341 341 340 339 338 337 338 337 336 335 334 334 334
284 284 283 283 283 283 283 283 282 283 282 282 282 282 283 283 283 283 282 282 281 280 280 281 280 280 283 282 282 283 283 282 282 279 278 276 279 285 287 287 289 290 291 291 292 293 295 297 298 299 299 300 301 301 301 302 303 303 303 311 317 322 324 323 323 322 326 332 333 339 339 338 338 341 341 338 338 336 337 337 336 335 335 334 333
283 283 283 283 282 282 282 282 282 282 282 282 282 282 282 281 281 281 281 281 281 281 280 280 280 280 280 280 281 280 281 281 281 281 278 277 277 279 281 286 288 288 289 291 291 292 293 294 296 297 298 298 300 300 301 302 303 303 303 305 313 321 323 322 322 321 321 324 331 334 334 340 344 343 340 338 339 338 337 336 336 335 335 334 333
283 283 283 282 282 282 282 281 281 281 281 281 281 281 281 281 281 281 281 280 281 281 280 280 280 280 280 280 278 279 279 279 279 279 279 279 277 277 280 281 280 284 288 288 290 291 292 293 294 296 297 298 298 299 300 301 303 305 307 306 308 312 319 321 322 322 322 323 324 327 334 334 339 339 343 343 341 339 338 336 335 334 333 334 334
282 282 282 282 282 281 281 281 281 281 280 281 280 280 281 281 281 281 280 280 279 280 280 280 280 280 280 279 278 278 278 277 277 278 278 277 277 278 279 281 280 281 284 288 289 290 290 291 292 296 298 298 299 299 300 300 300 302 302 303 303 304 308 321 322 321 322 322 323 323 326 331 334 337 338 339 340 340 338 336 335 334 333 332 332
282 281 281 282 281 281 281 280 280 280 280 280 280 280 280 280 280 280 280 280 280 279 279 279 279 279 279 279 279 279 279 278 278 279 278 277 278 277 278 280 281 282 284 287 289 289 290 292 293 295 295 296 297 298 299 300 299 298 300 301 303 305 307 308 321 321 321 322 321 321 324 328 330 332 333 336 335 337 337 337 336 334 334 334 332
281 280 281 281 280 280 280 280 280 280 280 280 280 280 280 279 279 279 279 279 279 279 278 278 279 278 278 279 279 279 278 279 279 279 279 278 278 275 277 280 277 278 281 283 284 288 289 291 293 295 296 297 298 298 299 299 299 300 299 300 302 304 305 309 316 320 320 320 320 320 323 326 328 331 334 334 335 337 337 337 336 336 336 335 335
280 280 280 280 280 280 279 279 279 279 279 279 279 279 279 279 279 278 278 279 279 279 278 278 278 278 279 278 278 278 278 279 279 279 278 277 275 275 275 276 278 277 279 280 283 284 287 290 292 294 295 296 297 298 298 298 299 297 297 300 304 304 305 310 314 321 320 320 320 319 318 320 326 327 330 336 336 338 338 336 337 336 336 335 336
279 280 280 279 279 279 279 279 279 279 279 279 279 279 279 279 278 278 278 279 278 278 278 278 277 278 278 278 278 278 278 279 279 277 277 276 276 275 274 272 273 275 276 280 281 283 284 287 291 293 295 295 296 297 298 299 298 298 297 304 306 303 304 309 312 319 320 319 319 319 318 318 322 326 327 328 332 333 333 336 335 336 336 334 334
279 279 279 279 278 278 278 278 278 278 278 278 278 278 278 278 278 278 277 278 277 277 278 278 277 278 278 278 277 277 278 277 277 277 276 276 276 275 275 273 271 270 275 275 278 280 285 285 288 292 294 295 296 297 297 297 298 297 295 300 301 303 306 309 312 317 321 320 318 318 318 318 319 321 323 324 325 326 327 327 328 328 327 327 327
278 278 278 278 278 278 278 278 278 278 278 278 278 278 277 277 277 277 276 277 277 277 277 277 278 278 278 278 276 276 276 276 276 276 276 275 275 275 275 274 274 272 271 272 275 278 282 286 284 288 293 295 295 297 297 298 298 298 301 302 303 305 304 306 310 315 321 320 318 319 318 318 318 320 321 322 323 324 325 325 325 325 325 325 326
278 277 278 277 277 277 277 277 277 277 277 277 277 277 277 277 277 276 277 277 276 277 277 277 277 277 277 276 276 275 275 275 275 275 275 275 274 274 275 275 275 273 274 273 274 279 280 285 287 288 292 293 296 296 297 298 297 298 300 301 302 305 304 305 309 312 317 318 318 320 319 318 318 318 320 321 322 323 324 324 324 324 325 325 328
277 277 277 277 277 276 276 276 276 276 277 276 276 276 276 276 276 276 276 276 276 275 276 276 276 276 276 275 275 274 274 274 274 274 275 274 274 274 274 275 275 275 274 275 273 278 282 282 286 289 290 293 295 295 296 298 297 298 299 300 300 299 298 300 301 307 313 316 317 317 318 318 317 317 318 318 321 323 324 323 322 323 324 325 328
277 277 276 276 276 275 276 276 275 275 275 275 276 275 275 275 274 274 275 275 274 274 274 276 277 275 274 273 273 273 274 274 273 274 274 274 274 273 274 274 275 276 276 275 273 274 281 282 284 287 290 292 294 294 295 297 298 294 300 298 298 297 301 302 302 304 308 313 316 317 317 317 317 317 318 317 320 322 321 321 321 322 323 324 326
276 276 275 275 275 275 275 275 274 274 274 274 274 274 274 273 274 274 274 273 273 273 274 275 275 274 273 273 273 274 274 273 273 273 273 273 274 274 274 274 274 275 275 274 273 274 278 282 284 285 288 291 292 294 294 295 296 298 296 299 299 300 301 303 304 302 306 310 314 315 316 316 317 316 317 317 317 320 320 322 322 320 322 323 324
275 275 275 275 275 274 273 273 273 273 273 273 273 273 273 272 272 273 273 273 272 272 273 274 273 273 273 272 272 273 274 273 273 273 273 273 273 273 273 274 274 274 276 275 275 275 276 281 282 285 288 291 290 294 294 294 296 297 297 299 300 301 301 303 305 306 306 308 312 314 315 316 316 317 317 317 318 320 320 321 319 318 319 321 320
275 274 274 274 273 273 272 272 272 272 272 272 272 272 272 272 271 272 272 272 272 272 272 272 272 272 272 272 272 273 273 272 273 273 273 273 274 273 274 274 274 275 276 276 276 276 278 280 284 284 287 290 291 292 294 295 296 297 297 298 299 300 301 303 305 307 307 309 311 314 315 315 316 315 316 316 316 317 318 319 318 316 317 318 318
273 274 273 273 272 272 271 271 271 271 271 272 271 272 271 271 271 271 271 272 273 272 272 271 271 271 272 271 272 272 272 272 272 272 273 273 273 273 273 274 275 275 276 277 278 278 278 278 282 284 288 289 290 292 294 296 296 297 297 297 299 300 302 304 305 306 308 310 310 312 314 314 314 315 315 315 315 315 316 316 316 315 315 315 316
272 272 272 272 271 271 270 270 271 271 271 271 271 271 271 272 271 272 272 272 272 271 272 271 272 271 271 271 272 272 272 272 272 273 273 273 273 273 273 274 275 276 276 277 278 280 279 279 280 284 288 290 291 292 294 294 295 296 296 296 297 298 301 304 306 307 304 308 309 310 312 313 313 314 314 314 314 314 315 315 315 314 314 314 314
271 271 271 271 271 270 270 270 270 270 271 271 271 271 272 272 272 272 271 272 272 271 270 271 271 271 271 272 272 272 272 272 272 273 274 274 274 273 273 273 273 275 276 277 279 281 282 282 283 283 286 288 289 291 293 294 294 294 294 296 297 298 299 302 305 306 308 314 312 314 311 312 311 312 313 314 314 314 314 314 314 313 311 311 312
270 270 270 270 270 270 270 270 270 270 270 271 271 271 271 271 271 271 271 271 271 271 271 271 271 271 272 272 272 272 272 272 273 273 273 274 274 274 274 274 274 274 273 274 277 279 281 282 284 285 286 288 289 289 292 294 294 294 293 293 294 297 299 300 301 304 307 313 311 309 313 314 312 313 311 311 313 313 313 313 313 312 310 309 310
269 269 269 269 269 270 270 270 270 271 271 271 271 271 271 271 270 270 270 270 270 271 271 272 272 273 273 273 273 273 273 273 273 274 274 273 274 274 275 275 274 273 273 274 274 276 278 280 282 284 286 287 288 290 293 292 292 293 294 294 293 295 297 299 301 302 305 312 312 312 310 310 311 311 310 310 310 312 312 311 310 309 307 309 310
268 268 268 268 268 269 270 270 270 271 270 270 270 270 270 271 271 271 271 271 271 271 272 272 273 273 274 274 274 274 275 276 277 277 277 277 274 273 274 274 274 274 273 274 274 275 276 277 281 285 286 286 287 288 289 290 290 290 293 294 294 295 297 298 301 305 306 310 312 313 312 314 314 314 315 314 314 311 311 309 310 306 306 309 310
267 268 268 268 268 269 269 270 270 270 270 270 271 272 274 272 272 272 272 272 272 272 272 272 273 274 274 275 275 277 277 277 278 278 279 279 279 277 275 275 274 274 274 274 275 276 276 276 279 284 284 285 286 287 288 290 292 293 292 292 292 295 297 298 301 303 308 311 312 311 313 315 315 314 315 314 314 311 314 313 315 311 308 309 310
266 267 267 268 268 269 269 269 269 269 269 270 272 274 275 276 274 272 272 272 273 273 274 274 274 274 275 276 276 277 278 278 278 279 280 280 280 280 280 280 279 277 275 274 275 276 276 277 279 283 285 285 286 288 289 290 291 291 291 292 293 295 295 295 294 299 307 311 311 311 311 313 314 312 313 313 313 313 315 315 309 307 308 310 310
266 267 267 268 268 269 268 268 268 268 269 271 273 274 275 276 276 274 273 273 274 274 274 275 275 275 275 276 276 277 277 277 278 277 278 279 280 280 281 281 281 281 281 278 276 276 277 277 277 280 284 285 286 287 288 289 289 290 291 291 292 292 294 296 297 297 303 311 311 310 309 311 313 312 311 313 313 314 315 312 308 307 308 310 310
265 266 267 267 267 268 268 267 267 268 268 271 273 274 275 276 277 276 274 274 274 274 275 274 274 274 275 275 275 276 277 279 278 278 277 277 278 279 280 280 280 281 281 283 283 281 280 279 279 280 282 285 285 287 289 288 290 288 288 287 288 289 291 294 299 300 302 310 310 309 307 308 311 308 311 312 313 315 314 308 307 308 308 309 309
265 266 266 266 266 267 267 267 267 267 268 270 273 274 276 276 277 277 274 274 274 274 274 274 274 274 274 274 274 275 276 277 278 278 278 277 277 277 277 277 277 278 280 281 283 284 283 281 281 281 283 286 286 287 289 289 287 286 286 285 287 287 287 288 294 299 305 311 309 308 305 306 309 311 309 311 314 315 314 309 307 308 308 309 308
265 265 265 265 265 265 266 266 266 267 267 271 273 275 276 277 278 277 274 274 273 273 274 274 274 274 274 275 275 275 276 276 277 279 278 277 277 276 276 276 277 277 278 279 281 282 282 283 284 284 285 287 288 288 289 289 288 288 288 287 287 288 289 291 291 291 296 307 311 307 302 305 308 309 309 311 313 313 314 308 307 308 308 308 308
265 265 265 265 265 265 265 265 266 266 268 272 274 275 276 277 278 274 273 273 273 273 273 273 274 274 274 274 275 275 275 276 278 281 280 279 278 276 275 276 276 277 279 282 283 284 284 285 285 286 287 288 289 288 289 289 289 289 287 287 287 287 286 286 286 289 294 304 309 308 303 304 308 309 308 311 312 311 311 310 307 308 308 308 308
264 264 264 264 265 265 264 265 265 266 268 271 274 275 275 277 276 273 273 272 272 272 273 273 274 274 274 275 275 275 275 276 279 281 282 281 278 277 276 276 276 277 278 281 284 285 285 286 286 287 288 289 290 290 290 290 288 288 287 286 285 287 286 284 286 289 295 304 305 309 306 303 305 308 306 308 309 307 309 309 310 307 308 308 308
263 263 264 264 264 265 265 265 266 267 268 271 274 274 275 276 276 273 272 272 272 272 272 273 274 274 275 277 277 275 275 276 279 281 282 280 278 277 277 276 276 276 277 280 282 283 285 286 286 287 288 288 289 290 290 290 290 290 286 284 286 287 285 285 285 289 298 304 305 305 305 303 305 306 305 305 304 306 308 309 309 309 306 307 307
263 263 264 264 264 265 265 266 269 269 268 270 273 274 275 276 275 273 273 272 271 272 272 272 273 274 274 275 277 277 277 277 280 281 282 281 279 278 277 277 276 276 277 280 281 282 283 284 285 286 286 287 287 288 288 289 289 289 289 288 287 286 285 286 286 289 296 300 305 302 304 303 304 305 304 302 301 300 306 306 306 309 310 309 309
Wind_Speed
5 5 5 5 5 5 5 4 4 4 5 4 5 6 5 6 6 7 7 7 8 8 8 8 8 8 8 9 9 9 9 9 9 9 10 10 10 11 13 14 18 20 21 21 22 22 23 24 26 27 27 27 26 26 26 26 26 25 25 24 24 24 24 22 22 22 24 26 27 24 24 25 29 26 24 25 27 28 26 25 24 24 24 24 24
5 5 6 5 5 5 4 4 4 3 4 4 5 5 5 5 6 6 7 7 7 7 8 8 8 8 9 9 9 9 9 9 10 10 10 10 10 11 14 14 16 20 21 22 23 23 23 24 25 27 29 29 28 28 27 27 27 26 26 25 25 26 25 24 23 22 18 23 23 23 27 30 27 26 24 27 28 28 25 25 24 25 25 25 25
5 5 5 5 5 4 4 4 3 3 4 4 4 5 5 5 6 6 7 7 7 7 7 8 8 8 9 9 10 9 10 10 10 10 11 10 10 11 12 15 16 19 21 22 22 23 23 23 24 26 27 28 29 28 28 28 28 28 28 27 27 28 27 24 25 23 20 24 25 26 25 26 27 25 27 29 28 26 25 23 23 24 25 24 24
4 5 5 5 5 5 5 5 5 4 4 4 6 5 5 6 6 6 7 7 7 7 7 7 8 8 9 10 10 10 10 10 10 11 11 11 11 12 11 12 15 16 19 22 24 24 24 24 25 25 25 27 30 31 29 29 29 28 28 28 27 28 28 26 21 22 22 27 30 25 29 26 28 27 27 28 29 26 26 24 23 23 24 24 24
4 5 6 5 5 6 5 5 5 5 6 6 7 6 5 6 6 7 6 7 7 7 7 8 9 9 9 10 10 10 10 10 10 11 12 12 12 12 12 13 13 15 16 18 23 25 25 25 25 25 26 27 28 30 30 29 29 29 29 28 29 27 28 28 23 24 25 26 27 26 29 28 30 30 30 29 29 28 27 25 27 24 24 24 24
4 5 5 5 6 5 5 5 5 7 7 6 6 6 6 7 7 7 6 7 7 7 8 8 8 8 9 9 9 10 10 11 11 11 11 12 12 12 12 12 12 12 12 15 17 20 25 25 25 26 26 26 26 28 30 30 30 29 30 29 29 30 29 26 26 26 25 25 28 30 30 32 29 30 30 31 29 27 26 26 26 25 25 24 24
4 5 5 5 6 5 5 4 5 6 6 5 6 6 6 7 7 7 7 7 7 8 8 9 10 10 9 9 9 10 10 11 11 12 12 12 12 12 12 12 12 12 12 13 14 18 20 24 25 26 27 27 29 29 30 33 31 31 30 30 30 30 28 27 26 27 25 29 30 27 28 28 30 30 29 29 29 27 25 24 23 24 25 24 25
4 5 5 5 6 6 5 4 5 5 5 5 5 6 6 7 7 7 8 8 8 9 8 10 10 10 10 10 10 10 11 11 12 12 11 12 12 12 12 13 13 12 13 13 13 15 18 19 23 25 25 26 27 27 29 30 31 33 32 31 31 31 29 27 25 27 28 27 28 29 28 27 28 32 33 31 30 29 28 27 25 26 27 25 25
4 5 5 6 6 6 6 5 5 5 5 5 5 5 5 6 6 6 7 8 9 11 10 9 10 11 11 11 11 11 11 11 11 11 11 12 13 13 13 14 14 16 15 14 14 13 17 19 21 25 27 28 30 30 30 30 31 31 32 33 31 32 30 26 26 26 27 30 27 29 32 31 29 31 35 34 32 30 31 30 28 25 26 27 27
5 5 5 6 7 7 7 6 5 5 4 5 5 5 6 6 7 7 7 8 8 9 11 10 10 11 12 12 13 12 12 12 12 12 12 14 13 14 14 13 13 14 14 14 14 14 14 16 20 22 23 23 28 30 32 32 33 33 33 34 32 31 30 29 25 27 27 25 26 29 31 33 32 34 36 33 29 31 29 27 28 28 27 27 28
5 5 5 6 6 7 7 6 5 5 4 5 5 6 5 6 8 8 7 7 8 10 10 10 11 11 12 15 14 15 13 12 12 12 13 14 14 14 13 14 14 14 14 14 14 15 16 15 13 13 15 21 23 29 31 33 33 33 33 34 34 33 32 31 26 26 26 27 26 28 29 30 33 31 31 30 28 27 28 29 29 27 27 28 28
5 5 5 6 6 7 7 7 5 5 5 5 5 5 7 8 9 8 10 8 8 8 9 10 11 13 15 15 14 14 15 13 14 14 13 13 13 13 13 13 13 13 14 13 13 15 15 16 15 15 15 19 23 23 27 30 30 32 34 34 34 35 33 32 30 25 27 29 29 29 32 30 30 29 29 34 32 29 30 29 29 27 30 29 28
5 5 6 6 7 7 8 7 5 5 5 5 6 8 8 8 8 8 9 9 8 6 7 8 11 13 11 13 14 13 16 17 17 15 14 13 12 13 12 12 13 13 12 12 14 15 15 16 15 15 15 15 17 22 25 27 28 29 34 35 36 36 34 32 32 29 26 30 29 28 31 30 34 33 33 34 32 32 35 36 32 34 32 33 34
6 6 6 7 7 7 7 7 5 5 5 6 8 8 9 8 7 8 6 8 8 6 7 8 8 9 15 17 14 11 13 13 15 15 15 13 13 13 12 13 14 14 13 13 15 16 15 15 15 16 16 16 17 17 16 18 23 32 35 36 37 37 36 34 32 33 26 27 30 30 31 31 36 41 36 35 38 39 36 38 36 36 33 33 31
7 6 6 6 7 8 7 6 6 5 6 6 7 8 7 8 8 7 8 7 7 6 6 4 8 10 11 12 13 18 13 7 10 13 11 11 11 12 12 14 16 14 13 14 14 15 14 14 16 17 17 17 17 17 17 19 19 24 30 35 34 37 34 33 35 36 32 28 30 28 30 30 29 37 37 39 43 41 37 40 38 36 35 35 32
7 7 6 7 8 8 7 6 5 5 6 6 7 8 7 7 7 8 8 11 7 7 5 6 6 7 10 5 13 10 17 11 9 10 10 13 16 16 15 15 16 16 14 14 15 15 15 15 17 16 16 18 17 17 17 17 20 24 27 29 34 35 37 34 34 37 35 31 29 30 31 36 32 33 32 34 35 39 40 37 34 36 34 35 33
7 7 7 8 8 8 7 6 6 5 6 7 7 7 7 7 8 8 8 8 12 9 8 7 9 7 8 10 9 8 10 14 18 20 11 13 16 14 14 15 15 15 14 15 16 16 17 17 17 17 19 18 17 16 16 19 19 18 21 26 30 32 32 35 37 37 36 34 33 32 34 34 34 32 35 40 43 41 40 39 36 38 36 37 33
7 7 7 7 8 8 7 6 6 5 5 6 7 8 8 8 7 7 9 9 10 11 11 7 8 10 12 12 10 12 15 16 13 17 13 12 14 16 17 16 16 17 17 18 19 17 16 17 17 17 16 17 18 18 17 21 20 18 18 19 28 30 31 33 37 38 39 38 34 34 31 33 34 36 33 38 46 45 39 37 38 37 35 38 36
7 7 7 7 8 8 7 6 6 6 6 7 7 8 8 8 7 7 8 8 9 11 12 11 9 10 11 14 15 15 15 13 14 15 21 16 7 10 12 13 14 15 16 16 17 18 18 18 20 20 20 20 20 19 17 17 18 20 22 24 23 27 31 31 32 36 37 39 35 34 34 32 33 33 33 36 35 35 38 40 38 37 37 38 37
7 7 7 8 8 8 7 6 6 7 6 7 8 8 8 8 8 9 9 9 10 11 12 11 10 11 7 11 13 15 17 18 19 16 17 20 24 13 12 15 16 17 18 19 20 20 20 19 19 19 18 19 17 16 19 20 20 20 20 23 26 26 29 31 32 32 33 35 35 35 35 31 30 32 36 39 36 39 36 37 39 39 39 39 40
8 8 8 8 8 7 6 6 6 7 7 7 8 8 10 10 10 9 9 10 10 11 12 12 11 12 10 11 12 13 13 15 16 16 17 17 22 22 21 14 13 16 16 16 17 18 19 19 19 20 19 19 17 19 19 18 18 17 20 25 25 26 28 30 32 33 33 34 34 33 36 36 37 38 39 39 40 40 41 40 40 40 38 41 40
6 7 8 8 8 7 6 7 7 7 7 8 9 10 10 11 11 11 11 12 11 12 13 13 12 13 12 12 12 12 13 13 14 15 17 20 21 21 20 23 20 15 14 17 18 18 19 19 20 21 21 20 19 19 19 20 18 17 17 18 21 24 27 30 32 33 34 34 35 33 32 36 36 35 31 40 45 44 42 41 39 37 40 41 40
6 7 8 8 7 6 6 6 7 7 8 9 9 9 9 10 10 12 13 14 13 13 14 15 14 14 15 13 14 14 13 14 13 13 15 16 17 22 21 20 22 23 18 16 16 18 19 19 21 20 19 20 19 18 20 20 22 20 20 22 23 28 29 32 33 34 33 34 34 34 32 30 32 34 38 37 47 53 42 41 39 35 36 38 40
6 7 7 6 6 5 5 6 7 7 8 8 9 9 9 10 10 10 11 13 13 13 14 15 16 15 16 15 15 15 15 15 14 14 15 17 19 22 19 18 20 21 17 16 18 19 19 19 19 20 20 21 20 20 21 21 21 25 19 21 23 24 26 32 37 34 35 35 34 33 34 31 31 33 31 35 37 34 38 40 37 39 40 38 40
6 7 7 7 5 5 5 5 6 7 8 9 10 11 11 11 11 13 13 14 12 14 14 15 15 15 14 14 14 15 16 14 15 18 19 18 20 21 20 18 20 21 18 15 15 16 18 19 20 18 18 19 18 20 20 20 20 19 18 17 23 23 25 27 34 37 36 35 34 34 34 33 30 28 32 34 39 44 46 43 43 43 41 45 42
7 8 6 6 5 5 6 7 8 9 10 11 11 12 12 12 12 13 14 13 13 15 16 17 17 18 17 17 16 16 16 15 16 17 20 18 19 19 20 17 19 22 18 16 17 16 17 18 19 18 18 21 18 20 19 22 21 22 23 17 18 23 24 25 32 39 35 35 35 34 34 33 30 30 31 35 41 42 46 50 53 46 46 47 44
7 7 7 7 7 6 7 8 8 9 10 11 11 12 12 13 13 14 13 12 14 14 15 16 16 19 20 19 19 19 18 20 19 19 18 19 19 19 17 18 19 20 19 17 17 20 19 15 17 18 19 19 19 19 20 20 20 19 16 11 10 20 22 25 29 38 37 35 35 35 34 34 31 31 31 33 37 38 41 39 40 48 48 45 43
8 8 8 7 7 7 7 8 9 10 11 12 13 12 13 13 13 13 14 11 14 16 15 16 18 20 21 21 19 21 20 19 18 19 19 19 18 17 18 18 19 20 17 17 17 18 20 18 17 20 20 18 19 18 19 20 20 22 20 13 14 14 20 22 26 35 38 35 35 34 35 34 34 31 33 35 35 37 38 42 39 33 35 41 40
8 7 8 7 6 7 8 9 9 10 12 12 13 13 13 13 13 14 15 14 15 16 15 16 17 17 18 21 19 18 18 18 18 18 18 17 19 18 17 18 18 19 19 17 19 16 16 17 17 16 19 19 18 17 18 19 20 17 14 13 12 12 18 22 24 31 38 36 35 36 35 34 34 33 34 36 37 37 35 38 40 40 34 28 35
7 7 7 7 6 7 8 9 10 11 12 12 13 13 13 13 14 14 14 14 15 14 14 15 16 15 19 18 17 17 17 17 17 18 18 18 18 17 19 18 18 21 20 19 21 14 17 15 17 15 14 16 15 14 15 17 20 17 16 13 11 11 15 18 21 28 35 35 35 36 35 35 34 33 34 36 39 39 41 38 36 38 40 38 34
8 7 7 6 6 6 7 9 9 11 12 12 12 12 13 13 13 13 14 14 14 15 14 14 15 16 19 20 19 18 18 18 18 17 18 18 18 17 17 17 19 20 21 19 20 16 12 18 16 17 17 17 16 15 15 15 16 17 16 13 12 15 19 19 24 25 32 35 35 35 35 35 34 33 33 32 36 38 41 42 42 41 37 37 37
7 7 6 6 6 7 7 8 10 11 12 12 12 13 13 13 13 13 13 14 16 16 16 15 15 16 19 20 19 18 17 17 17 17 17 17 17 18 17 17 18 19 19 20 23 26 11 19 17 18 19 17 18 18 18 16 15 17 15 15 14 15 14 13 18 23 29 33 33 34 35 35 33 32 32 32 34 35 37 41 40 41 42 39 38
7 7 6 6 7 8 9 9 10 11 12 12 11 11 12 14 13 15 15 15 16 15 16 19 18 18 19 20 20 20 18 19 17 16 17 17 17 17 16 17 18 18 19 20 22 26 18 18 18 17 19 19 19 18 19 17 17 17 17 15 15 13 13 12 13 20 24 32 32 33 33 34 32 31 33 35 36 36 36 33 35 35 37 40 39
6 6 7 6 7 8 9 10 11 11 12 13 12 11 12 13 14 12 13 15 15 17 17 20 18 17 18 19 20 19 18 19 19 18 16 16 17 17 17 16 17 18 18 19 21 22 25 15 19 18 19 19 21 19 18 18 17 16 17 14 12 12 12 12 11 14 22 29 33 33 34 34 32 32 33 35 36 35 37 40 38 38 36 33 38
6 5 6 7 8 9 10 11 11 11 12 12 11 12 13 14 15 15 14 15 16 18 19 19 19 18 19 19 20 18 16 18 18 18 17 18 16 18 20 18 19 19 19 20 20 22 25 19 16 17 17 17 18 17 17 17 17 16 17 15 12 11 11 13 14 12 21 26 32 33 35 35 34 33 34 34 35 36 38 38 42 41 41 37 32
6 6 6 8 8 9 11 11 11 12 12 12 13 12 14 14 15 15 15 16 17 18 19 19 18 18 18 19 19 18 18 19 19 17 17 18 17 16 19 19 19 20 19 20 22 21 21 21 18 17 15 16 16 19 16 16 17 16 16 15 12 12 13 13 14 13 18 26 35 34 33 34 34 33 34 34 34 34 37 38 38 40 38 38 37
6 6 7 7 8 9 10 11 12 12 13 13 14 14 13 14 15 16 16 17 18 18 18 18 19 19 20 20 20 19 18 18 18 18 18 20 19 18 18 17 18 18 16 18 21 22 22 21 19 16 16 14 13 14 14 15 15 15 16 14 12 13 14 13 12 13 21 26 35 38 36 35 33 32 35 35 34 34 31 36 38 38 38 37 37
6 6 7 7 7 10 11 12 12 13 13 13 13 14 15 15 15 15 16 17 18 18 19 18 17 19 19 21 21 19 19 18 18 19 19 22 20 20 21 19 18 17 18 19 19 21 21 20 16 15 16 15 14 14 12 13 15 13 13 12 12 12 13 14 12 11 11 12 12 24 32 32 33 33 34 35 35 37 36 33 39 38 37 37 36
6 7 7 8 9 10 11 11 12 13 14 13 13 14 15 15 16 16 16 18 18 17 17 18 20 19 21 21 21 21 20 20 20 21 21 21 19 22 21 19 19 19 18 18 18 19 19 19 17 16 16 17 16 14 11 12 15 13 13 13 14 10 10 11 13 11 12 13 20 24 23 24 27 25 30 33 35 36 38 37 35 40 38 38 36
6 7 8 9 9 9 11 11 12 12 13 13 14 14 14 14 15 17 18 18 18 19 19 19 19 21 22 23 23 22 22 20 21 21 21 20 19 20 19 18 18 18 17 16 17 18 17 16 16 17 15 15 12 11 9 10 10 11 10 10 14 13 11 10 10 11 12 12 13 16 19 21 22 28 31 31 33 35 35 36 41 38 41 39 39
5 6 8 9 10 11 11 11 12 12 12 12 11 11 13 16 17 18 19 19 19 19 20 20 20 21 21 20 22 21 24 27 32 29 27 24 20 19 20 18 19 16 16 15 16 17 17 16 17 16 13 12 11 10 12 12 10 12 10 8 12 13 13 13 11 10 12 14 13 16 15 16 16 16 17 18 22 30 32 33 32 44 42 40 39
6 7 8 9 10 10 11 11 11 11 11 10 13 21 22 18 19 18 18 19 18 19 21 21 21 20 21 22 20 31 31 33 33 35 35 36 35 29 23 18 18 17 16 16 16 15 14 15 17 13 11 10 12 12 12 12 11 10 11 11 12 13 13 14 14 11 10 16 13 15 14 13 15 15 16 18 19 26 19 22 21 26 41 41 39
6 8 8 9 9 9 10 11 12 11 11 11 20 23 25 27 21 19 19 18 20 19 18 21 18 20 19 19 21 23 28 29 30 35 35 37 37 36 38 36 29 21 18 17 17 16 13 13 15 13 9 11 12 12 11 11 10 10 10 10 11 11 11 12 14 11 9 16 15 15 13 13 15 15 16 16 17 19 19 20 29 29 35 41 38
6 7 8 9 9 9 9 10 12 12 13 17 23 25 26 27 25 20 18 17 18 17 19 18 20 18 20 18 18 16 19 22 22 23 27 33 36 37 36 35 35 36 32 24 19 16 15 14 15 16 14 12 12 11 10 9 10 9 8 10 11 11 12 13 12 13 6 10 13 14 14 11 14 14 15 16 17 19 21 25 33 37 34 37 41
6 7 8 8 9 9 10 11 13 13 14 19 23 26 27 28 28 24 18 18 17 20 18 20 20 20 19 19 18 17 16 26 25 24 23 24 29 34 34 33 34 34 32 34 35 24 15 15 16 17 16 13 13 12 10 9 6 8 7 10 11 12 12 14 14 12 14 10 11 13 13 12 14 14 15 14 18 18 23 30 36 35 38 37 38
6 7 7 9 9 9 10 12 13 13 15 18 25 26 27 28 28 26 19 18 18 18 20 20 19 20 20 19 18 18 17 18 18 20 20 20 20 19 18 20 20 24 27 32 32 33 28 20 18 18 18 16 15 12 8 5 6 9 8 12 12 13 13 14 17 18 15 11 14 10 11 12 13 15 16 15 18 20 20 31 40 39 37 36 34
5 6 7 7 8 9 12 12 13 15 13 22 25 27 27 29 29 26 16 16 16 18 19 19 20 20 20 19 20 20 19 19 18 20 20 19 18 16 16 16 18 18 19 19 18 16 16 16 17 18 17 16 14 14 10 7 9 9 10 12 12 14 15 17 16 17 20 16 16 12 12 13 12 15 15 16 17 19 19 32 40 40 39 38 36
5 5 6 7 9 10 11 12 13 15 14 22 24 25 28 27 30 18 15 16 17 18 19 19 20 19 19 19 19 20 20 20 24 30 27 22 19 17 18 17 16 17 18 18 21 20 18 16 14 14 13 14 15 12 9 8 9 9 9 9 10 12 12 14 15 15 16 14 15 13 9 12 13 16 15 15 17 17 19 22 35 40 41 39 38
5 5 6 7 8 10 12 12 13 14 14 19 23 25 26 28 23 17 17 16 15 17 19 20 20 20 18 19 19 19 20 20 25 30 30 28 19 17 17 17 16 15 17 16 19 24 25 26 28 27 25 24 23 22 22 23 16 12 9 11 14 7 10 14 15 14 15 12 12 14 13 13 12 14 15 15 17 16 19 21 24 34 38 39 39
5 5 6 8 9 10 12 13 12 13 15 19 24 24 26 27 24 18 16 15 16 18 18 19 18 18 21 29 26 22 21 21 27 30 31 26 19 17 16 16 17 16 17 16 14 13 20 24 26 25 25 25 24 24 24 24 24 17 11 15 11 5 12 12 14 15 13 12 14 11 13 15 13 13 15 12 12 14 18 19 22 27 35 34 38
5 5 5 8 10 11 11 12 17 17 15 17 23 24 26 26 23 17 15 15 18 17 18 19 19 18 19 20 27 25 23 24 31 30 31 27 18 17 17 16 16 17 16 15 14 13 12 11 11 13 14 19 17 15 14 21 24 21 16 16 11 10 15 13 13 14 13 11 14 12 13 14 17 14 16 14 11 6 16 19 20 21 21 21 24
Wind_Direction
353 349 340 346 340 339 337 345 338 342 341 336 341 334 330 329 327 327 324 320 317 316 317 309 304 303 300 299 298 295 292 291 288 285 283 283 284 283 283 286 285 285 284 283 283 283 283 285 286 282 278 271 267 267 268 266 264 261 258 255 247 234 235 229 223 217 210 215 218 214 212 214 207 197 193 194 189 188 186 185 180 175 172 172 174
346 340 336 332 329 327 322 327 323 331 334 329 337 328 325 320 323 321 321 317 311 309 307 304 302 300 298 296 294 293 293 291 289 287 286 283 282 282 278 273 276 281 283 284 282 281 280 279 280 280 277 277 275 271 269 266 264 261 259 254 249 242 230 234 230 221 209 211 220 219 217 209 198 198 196 196 192 189 185 184 181 174 172 175 177
338 332 325 320 319 321 321 320 317 331 331 327 330 321 315 314 318 317 316 315 307 306 304 303 300 299 297 296 295 293 291 289 287 286 284 283 282 282 282 274 271 274 278 279 279 279 278 277 276 277 278 279 277 272 268 267 264 261 259 256 251 247 241 228 232 225 212 211 215 218 221 213 205 199 195 196 192 190 185 183 182 177 174 176 178
321 319 317 314 318 327 321 327 326 329 331 330 326 318 310 310 312 310 306 303 306 304 305 302 301 299 301 295 294 293 292 290 287 286 284 282 281 281 280 279 271 266 269 273 276 276 276 275 274 275 277 277 273 271 269 267 265 263 260 258 254 249 245 237 224 227 219 210 209 210 213 212 205 199 199 195 193 188 185 179 181 181 178 180 181
315 315 317 315 317 316 321 322 325 332 326 325 321 317 316 319 317 314 308 309 302 305 307 302 302 303 302 299 298 294 291 288 286 285 283 281 281 280 280 280 278 272 263 261 265 269 272 272 271 270 269 271 272 273 271 266 264 263 260 258 256 251 244 236 221 221 219 214 210 214 219 215 208 200 196 195 190 188 181 179 182 181 182 184 182
316 318 319 315 313 306 314 317 325 328 321 323 328 330 322 321 319 317 316 310 309 311 311 306 301 301 300 300 296 294 294 291 288 285 282 279 278 277 276 275 277 277 274 264 260 264 268 270 270 269 267 268 269 271 270 269 267 264 263 260 257 255 251 240 232 225 221 222 213 215 216 216 211 208 199 191 190 185 182 181 180 181 183 185 181
312 313 312 306 302 298 299 306 325 317 315 324 321 321 318 319 321 318 312 308 308 309 307 303 303 301 299 300 297 296 290 287 286 284 280 281 279 277 275 275 273 273 275 277 264 252 253 262 267 268 267 265 264 265 267 266 262 262 260 260 258 256 251 240 227 229 224 218 221 216 216 216 209 202 202 198 188 182 178 179 177 181 185 185 183
301 302 300 299 297 296 295 310 313 308 311 310 309 310 315 313 309 309 312 309 310 307 306 301 298 298 299 296 293 290 288 284 280 280 278 280 277 275 274 274 273 273 276 272 275 275 267 265 267 269 270 270 268 264 263 265 265 261 258 256 256 255 253 245 228 222 227 227 217 217 217 215 213 205 195 189 184 180 177 178 180 181 183 183 186
285 289 288 291 292 293 294 297 302 298 296 300 293 298 302 300 299 301 299 303 304 301 302 301 302 299 297 292 287 286 283 281 280 280 279 273 275 274 272 271 270 267 267 266 268 268 269 260 258 261 262 264 267 266 265 265 265 266 262 257 252 252 252 247 237 219 223 229 228 213 217 215 215 218 211 193 179 177 175 176 178 182 182 183 185
274 278 282 284 284 284 287 286 289 287 286 292 294 295 292 292 297 296 297 297 297 301 301 300 298 296 293 289 286 282 279 277 276 277 274 273 269 266 268 270 269 268 266 268 271 269 268 266 262 258 255 255 258 261 261 260 260 261 262 260 256 252 250 248 239 231 220 220 224 226 214 216 215 214 212 195 185 180 174 172 176 181 181 181 183
265 266 273 282 283 279 277 281 281 281 286 290 293 290 287 292 293 293 288 287 291 292 291 296 293 289 287 285 281 275 273 270 270 270 268 268 270 270 269 265 264 265 266 265 267 269 270 269 269 270 262 251 247 253 255 256 256 256 257 256 256 254 250 247 237 229 221 220 218 220 217 213 213 211 208 198 187 181 177 175 178 177 179 180 181
265 268 269 275 280 279 277 277 273 276 285 286 290 296 298 296 291 292 292 288 279 281 288 295 293 290 286 279 272 274 270 266 267 265 266 266 267 266 265 266 265 266 264 264 264 265 267 268 267 265 265 265 257 254 255 256 253 251 251 252 252 251 249 247 245 229 223 219 219 215 217 211 210 204 200 200 189 186 181 176 177 179 181 179 181
264 261 264 269 270 272 271 269 270 272 275 281 284 287 287 286 290 288 288 290 289 289 296 303 303 298 288 284 288 279 269 265 262 260 260 261 261 265 267 268 266 264 265 265 265 264 265 268 267 267 267 268 264 253 249 251 253 249 248 249 248 247 246 245 244 237 226 228 220 215 214 208 205 210 201 191 188 184 185 183 180 182 182 181 182
257 257 259 260 267 269 268 269 273 277 280 282 280 278 280 280 288 293 282 289 292 297 299 311 300 311 320 317 300 275 259 257 250 251 251 254 260 264 266 267 267 269 270 270 267 266 264 265 265 266 266 266 264 268 262 251 245 242 244 245 245 244 239 239 242 237 222 221 223 218 214 211 209 207 196 195 189 186 184 183 184 184 182 180 179
248 250 257 260 262 265 266 272 272 281 286 282 279 276 278 282 285 288 302 290 283 285 283 275 293 307 296 290 304 329 310 271 257 253 252 257 260 261 264 266 268 269 270 272 271 270 267 264 262 264 264 263 261 260 261 256 254 250 236 237 241 243 241 237 237 238 229 218 220 219 217 215 214 219 211 192 186 185 184 184 184 179 182 181 179
251 251 251 254 257 261 266 264 269 274 278 281 280 278 277 282 287 293 297 301 297 294 283 279 279 307 310 309 309 306 301 315 330 294 286 281 270 267 268 270 274 275 274 271 272 270 268 264 261 261 262 262 261 260 260 263 257 249 244 233 233 237 242 241 241 237 234 221 215 219 219 219 212 209 201 197 191 187 186 185 184 180 177 178 180
247 246 250 257 258 257 261 267 272 276 278 276 275 277 282 279 285 285 285 290 298 294 286 270 263 246 255 297 302 280 264 297 327 297 277 255 258 258 259 263 265 270 271 271 269 269 268 266 264 264 263 266 272 275 275 268 263 258 250 236 228 230 233 236 239 239 236 229 215 214 218 215 216 209 201 192 191 188 185 182 182 182 180 180 179
247 250 251 255 257 257 260 269 275 277 275 278 281 282 278 280 281 282 282 277 282 292 287 270 255 251 242 242 244 269 298 302 314 291 314 266 265 260 261 263 266 267 266 268 269 268 264 263 261 260 260 262 265 263 258 262 261 257 255 247 226 226 227 229 234 236 235 230 224 220 212 212 212 212 212 212 195 186 183 179 181 184 181 182 183
257 258 259 259 263 265 269 274 279 278 278 277 277 278 280 279 277 272 275 280 277 278 280 285 281 253 243 244 248 254 260 277 279 300 298 300 261 264 269 265 265 263 263 260 260 261 261 262 263 264 263 262 260 259 260 261 271 276 273 263 247 224 226 225 227 234 235 234 225 218 222 210 208 208 206 204 196 189 181 179 179 184 183 183 183
261 261 259 257 259 264 264 267 269 271 272 271 273 275 277 274 267 267 269 262 262 264 277 278 273 281 254 256 254 253 253 253 255 262 278 294 298 278 254 264 261 257 257 261 262 263 262 261 259 258 257 254 253 260 263 257 253 256 262 264 254 241 226 223 222 225 232 237 234 224 215 219 216 206 204 201 194 190 188 184 181 181 183 183 184
252 255 252 252 253 256 261 264 266 271 269 269 271 274 275 275 272 268 264 264 258 263 267 270 270 271 275 263 261 257 256 253 254 251 259 273 277 285 289 279 264 260 259 258 260 259 258 259 259 261 261 262 261 258 258 261 256 250 251 259 267 247 231 224 220 219 222 229 235 230 222 215 211 207 204 200 193 188 187 185 182 181 179 183 183
254 250 251 250 251 256 263 266 268 272 271 271 276 274 272 270 267 266 266 263 260 258 258 264 267 269 264 268 266 263 258 255 249 249 252 247 263 276 284 290 285 269 269 266 262 262 261 258 258 258 257 255 254 257 255 256 256 252 249 256 271 275 243 227 222 219 219 222 228 234 227 220 217 214 209 198 194 190 183 184 182 180 182 180 180
265 261 254 251 253 255 261 270 277 275 274 277 275 277 278 275 272 266 261 259 261 259 259 259 262 264 263 259 258 254 253 255 256 252 249 258 263 265 268 272 277 284 270 265 266 263 259 259 260 255 252 252 253 256 255 256 255 256 254 256 259 264 269 244 223 219 216 218 222 226 231 222 217 215 212 222 206 185 178 177 177 179 184 183 182
258 259 255 247 255 263 268 274 276 275 275 277 279 277 276 277 271 266 262 258 259 259 258 259 257 260 261 259 258 257 256 254 259 258 256 261 266 268 268 273 277 272 277 276 270 269 265 260 256 254 254 258 255 255 256 255 260 262 257 251 251 256 259 262 233 217 215 216 217 220 225 225 214 209 208 209 200 192 180 179 179 179 184 183 184
253 253 254 253 262 268 274 275 279 276 276 280 279 277 275 274 271 268 263 261 259 257 259 257 256 258 263 262 261 257 256 257 259 265 264 266 265 264 265 266 270 278 280 279 272 264 262 260 257 254 255 252 255 254 259 261 255 254 248 245 246 248 253 255 246 221 213 212 214 216 220 224 218 208 201 200 195 189 187 182 182 183 183 183 183
266 261 261 263 266 270 275 275 276 278 277 277 276 274 271 270 271 268 267 264 262 259 259 260 259 258 260 263 260 260 262 263 263 265 268 261 258 256 266 265 264 271 278 276 270 266 257 254 257 258 258 255 253 253 257 256 260 259 255 252 250 249 251 252 249 230 212 210 211 214 217 220 218 211 203 199 198 196 192 186 177 180 184 184 182
262 268 269 271 276 279 277 280 279 278 279 276 274 272 270 269 266 267 266 264 263 262 261 260 258 261 263 264 269 268 267 272 267 263 261 259 255 257 259 267 270 266 269 267 267 256 260 262 259 253 250 250 250 253 254 254 253 262 263 245 248 250 246 249 249 234 214 207 207 211 215 216 219 212 204 202 197 195 196 188 187 181 180 184 182
262 263 264 267 276 278 275 273 276 274 273 270 270 270 270 268 268 267 267 264 265 263 261 261 261 264 268 268 262 263 267 265 262 261 260 259 255 257 255 259 263 274 271 269 264 261 256 260 256 252 254 257 255 255 260 262 262 261 257 252 256 257 254 252 251 238 217 206 205 208 211 214 215 214 206 201 198 195 190 184 183 192 192 181 182
256 258 261 260 266 270 277 278 273 271 270 268 267 268 267 268 268 268 267 267 266 264 261 263 268 271 270 266 260 263 261 262 260 258 258 258 256 256 254 253 255 262 272 269 265 266 260 252 259 251 248 250 253 251 254 255 251 247 250 252 247 244 248 249 249 241 220 207 204 205 209 212 211 213 207 201 197 192 191 186 183 180 185 193 182
257 258 256 260 267 270 272 277 274 271 270 271 270 269 268 268 266 266 266 267 266 265 264 267 269 271 269 265 262 263 261 260 259 258 256 256 256 254 254 254 255 258 261 268 271 258 267 258 255 260 252 252 253 252 253 255 265 281 283 281 281 279 284 276 259 243 227 210 204 204 206 210 210 210 208 201 195 191 187 185 184 184 180 179 190
255 258 264 272 270 277 276 278 275 275 275 273 273 273 271 270 269 268 268 266 265 266 268 267 272 272 269 265 264 262 261 261 260 258 258 257 255 255 255 254 253 253 260 265 273 261 252 266 261 261 266 268 263 260 263 266 269 268 270 274 275 276 274 277 277 268 239 215 204 202 203 208 208 207 206 201 195 192 190 188 183 180 181 180 185
263 269 277 285 285 285 283 280 279 278 276 276 274 275 275 270 270 270 270 269 269 270 272 274 277 268 268 266 264 262 261 261 261 260 260 257 256 256 255 256 258 256 257 260 260 270 251 268 268 269 266 267 266 263 260 263 266 265 270 274 273 268 270 268 265 261 248 226 208 203 202 203 205 202 200 194 191 191 192 186 184 180 177 179 181
275 284 292 296 293 288 285 283 282 280 277 277 275 274 273 271 268 268 271 270 268 269 272 274 272 267 265 264 264 263 263 261 261 262 260 258 257 256 255 255 255 254 255 258 262 268 265 256 261 261 263 267 267 263 266 266 267 268 267 270 273 270 270 267 266 264 245 227 212 205 204 202 200 198 195 193 191 190 187 184 180 180 181 177 179
281 293 299 300 298 294 291 286 282 280 277 276 277 275 273 274 272 270 271 272 271 275 281 283 272 268 265 265 265 265 264 263 264 263 263 262 259 257 256 253 253 254 251 256 257 260 266 252 258 253 256 255 262 261 263 266 267 268 269 271 269 270 273 272 266 266 252 225 216 207 204 203 199 195 195 193 191 189 187 181 180 177 180 186 177
291 293 303 300 296 292 288 285 284 283 280 280 279 279 277 275 275 274 274 276 278 281 280 275 271 271 267 265 265 266 265 265 264 263 262 262 263 262 260 257 259 258 254 251 258 263 267 264 260 260 254 256 259 264 261 260 264 268 273 273 274 277 268 265 267 265 262 228 217 209 203 202 199 195 195 193 191 189 186 185 179 180 176 178 185
293 295 296 295 292 290 287 284 284 285 285 284 283 279 278 278 278 277 277 277 280 281 280 276 273 269 268 267 266 266 265 266 263 262 261 260 259 261 262 261 260 257 254 259 258 258 262 268 262 260 258 264 262 262 260 263 265 267 268 274 276 274 274 269 263 267 267 239 215 210 206 203 199 194 193 193 191 192 187 182 181 178 178 176 177
292 296 294 292 291 288 284 285 285 285 286 287 285 283 280 279 278 281 284 286 285 281 281 275 272 272 270 268 269 266 266 265 265 264 263 262 261 260 262 264 261 261 261 254 252 251 255 256 259 258 266 265 263 262 264 268 269 270 271 269 273 276 274 267 263 262 262 246 214 205 204 200 197 193 192 193 192 188 194 182 178 178 177 176 176
292 291 291 290 289 287 284 284 286 286 286 285 285 285 285 285 285 285 286 287 286 278 277 273 272 273 271 272 269 267 263 261 264 265 266 264 265 263 263 262 261 265 265 257 256 262 262 259 256 257 254 259 259 256 255 262 266 271 276 275 269 265 268 270 263 262 265 242 213 205 201 198 192 189 189 191 191 190 186 191 178 176 176 176 175
285 287 289 289 285 285 285 285 285 286 286 286 286 288 288 290 289 287 289 289 285 281 277 276 271 267 272 268 268 264 259 258 260 265 267 264 263 262 261 262 262 258 262 270 275 271 268 271 267 258 258 257 258 262 258 260 263 267 279 286 281 265 259 260 268 267 266 248 208 208 204 193 189 185 186 188 190 190 187 183 185 176 176 175 175
281 287 290 288 286 283 284 284 286 286 288 288 288 289 290 291 292 292 290 288 284 281 278 275 275 273 268 268 265 264 260 259 260 262 260 262 261 260 262 263 262 260 258 261 265 270 274 272 270 262 250 253 250 254 264 263 267 268 262 269 278 283 279 264 249 264 268 249 214 198 207 192 187 185 183 186 188 187 190 188 180 179 176 176 174
280 284 285 285 286 284 284 286 287 289 289 286 286 286 294 297 296 291 289 286 285 282 280 275 271 271 269 268 268 260 258 256 258 256 257 256 259 259 259 260 261 258 259 257 257 258 264 273 272 257 246 245 245 250 253 254 258 265 277 270 271 276 280 279 268 251 256 251 216 196 200 202 187 184 183 185 188 189 188 189 190 178 177 175 174
284 287 285 281 280 284 288 290 291 290 286 286 283 288 293 293 296 296 293 290 285 281 277 273 269 263 266 266 264 268 259 258 258 258 257 257 256 256 255 255 255 256 255 255 257 256 257 263 273 260 236 236 240 239 247 256 266 275 278 277 276 281 281 275 275 258 246 239 212 192 193 194 189 180 183 186 187 185 188 185 187 186 174 173 171
287 285 282 283 285 288 289 292 293 289 286 284 286 294 296 298 298 296 293 287 287 283 280 283 276 279 269 271 265 269 264 256 260 260 258 259 257 259 259 254 252 252 254 251 251 257 259 257 265 271 249 248 249 249 253 265 268 272 272 274 275 275 271 272 272 276 231 227 208 189 190 186 184 182 181 183 181 183 181 182 172 178 178 168 168
284 282 282 283 288 292 292 291 290 290 288 287 292 300 300 301 301 298 295 293 290 288 288 284 286 285 286 283 281 274 270 262 262 262 261 261 258 258 259 259 261 264 259 251 251 253 250 254 259 266 268 255 254 252 257 263 271 275 271 278 280 281 275 263 261 260 255 219 209 189 185 182 184 179 178 179 175 177 177 172 172 168 174 172 167
285 278 282 290 291 295 293 293 293 292 290 290 297 301 302 304 304 304 299 294 292 292 291 292 291 291 289 287 287 280 277 274 266 262 260 260 256 255 257 259 263 262 260 255 250 247 250 251 255 260 266 270 262 260 263 268 284 285 295 287 283 282 284 279 259 261 267 224 218 185 183 178 183 177 178 174 170 173 171 167 167 170 170 171 170
276 282 284 288 291 292 295 297 295 293 291 291 297 302 307 308 307 307 302 299 297 294 294 293 290 289 286 285 284 281 279 276 271 264 257 255 257 256 256 258 262 261 260 259 257 249 243 244 248 252 258 263 265 271 269 266 274 273 285 280 284 285 284 280 295 296 278 228 216 185 172 178 182 173 175 171 171 169 171 168 167 167 168 167 168
277 281 288 292 294 295 298 298 301 299 288 294 301 304 308 310 311 311 304 302 299 297 295 292 290 288 286 284 282 282 282 280 276 272 263 259 257 256 257 259 263 262 259 257 254 249 245 244 248 255 257 255 256 261 263 252 257 263 262 274 282 284 286 292 293 283 280 249 208 181 181 174 176 173 172 167 169 168 168 169 168 166 165 165 167
275 278 286 287 290 292 292 293 290 291 292 299 303 307 311 312 312 311 306 302 301 297 294 293 290 288 286 283 282 281 279 278 278 276 270 267 264 258 258 259 261 265 263 257 253 253 252 250 249 251 255 257 256 254 250 250 259 263 265 270 271 269 283 289 281 281 269 238 210 181 167 176 178 172 167 165 162 163 164 168 169 166 165 165 167
278 282 288 292 292 292 286 283 285 286 290 300 306 310 312 313 314 311 309 303 293 292 294 294 293 291 287 284 282 282 279 278 278 278 275 272 268 264 259 258 259 261 263 264 259 255 250 250 253 256 259 260 258 258 258 258 260 259 262 261 259 260 274 276 274 275 262 223 213 191 165 169 178 167 158 163 163 158 162 166 168 168 165 165 166
280 284 292 295 295 290 283 281 279 291 298 302 307 311 314 314 316 313 307 301 296 297 296 296 296 293 291 289 287 285 283 282 282 281 278 273 267 262 258 258 261 258 258 258 259 257 253 250 250 250 252 256 259 259 259 261 261 259 252 255 264 276 260 252 265 270 258 218 199 188 165 169 162 161 153 151 150 159 160 163 164 168 166 166 167
272 280 292 301 298 291 278 277 291 297 298 304 308 312 315 318 319 315 311 305 301 301 303 302 299 297 293 290 286 284 283 282 283 283 280 275 264 256 254 254 257 260 262 268 264 256 253 250 245 244 248 250 251 249 248 247 250 250 246 250 263 244 248 251 255 263 250 219 199 173 168 162 159 164 148 147 148 148 160 160 163 165 166 166 168